GFSNGP_925_temp_105.txt.gz
Temp
11 14 14 13 14 14 14 13 14 15 16 18 16 16 16 16 14 15 15 16 15 14 14 14 14 14 14 14 14 13 13 13 13 12 12 12 12 12 12 11 12 12 12 12
10 13 14 13 13 15 15 14 13 14 16 16 14 15 15 15 15 14 13 14 14 14 14 13 12 12 12 14 14 14 13 12 13 13 12 12 12 12 12 11 11 11 11 12
9 12 12 13 13 14 14 14 14 13 15 14 14 15 14 14 14 14 13 13 13 12 12 11 10 10 10 11 13 13 13 12 13 13 13 12 12 12 12 11 11 11 11 11
10 11 11 14 15 15 14 14 15 14 14 15 14 14 14 14 13 13 12 12 11 11 11 9 8 8 9 12 12 13 13 13 13 12 12 12 12 12 12 11 11 11 11 11
10 10 11 14 14 14 14 13 14 14 13 14 14 13 12 13 12 11 10 10 9 9 9 7 6 6 7 7 8 9 13 13 13 12 12 12 12 11 11 11 11 11 11 11
8 9 8 12 14 14 14 12 14 13 13 14 14 12 11 11 10 9 8 7 7 7 6 5 4 5 6 6 6 6 7 10 14 13 12 12 12 11 11 11 10 9 8 7
7 6 9 11 13 13 13 13 13 13 13 12 11 10 10 9 7 6 5 5 4 5 5 3 4 5 5 4 3 4 5 7 10 13 12 12 12 11 10 8 6 4 2 0
6 6 8 13 13 14 12 13 13 13 12 11 10 9 7 6 5 4 3 3 2 4 3 2 2 3 3 2 2 3 3 4 5 7 9 9 10 7 5 3 0 -2 -3 -3
8 8 10 11 12 13 12 12 12 11 11 10 9 7 6 4 3 2 1 2 2 2 3 2 1 1 1 1 1 1 1 1 1 2 2 3 2 1 0 1 -1 -2 -3 -4
9 11 11 11 11 12 11 10 10 9 9 8 6 6 4 3 2 1 0 1 1 1 1 1 -0 -0 -0 -1 -0 -0 -1 -1 -1 -1 -1 -1 -1 -1 -2 -2 -2 -3 -4 -4
9 9 10 10 9 10 10 9 7 6 6 5 5 5 3 2 1 -0 -1 -1 -1 -1 -1 -1 -1 -1 -2 -2 -2 -2 -3 -3 -4 -4 -4 -4 -4 -4 -4 -4 -4 -4 -4 -4
8 7 8 9 8 10 9 8 7 6 4 3 3 2 1 0 -1 -2 -2 -2 -2 -2 -2 -2 -3 -3 -3 -3 -3 -3 -4 -4 -4 -4 -5 -5 -5 -5 -4 -4 -4 -4 -5 -5
5 7 7 7 7 8 7 6 5 3 3 1 -0 -1 -1 -2 -4 -4 -4 -4 -4 -5 -5 -4 -4 -5 -4 -4 -4 -5 -5 -5 -5 -5 -5 -5 -5 -5 -5 -6 -5 -5 -5 -5
6 4 4 4 3 4 5 4 2 1 -0 -1 -2 -2 -3 -4 -4 -5 -5 -5 -5 -5 -5 -5 -5 -5 -5 -5 -5 -6 -6 -6 -6 -6 -6 -6 -6 -6 -6 -6 -7 -7 -7 -7
5 5 4 4 4 4 3 3 3 1 -1 -2 -3 -3 -3 -4 -4 -5 -5 -5 -5 -6 -6 -6 -6 -5 -6 -5 -6 -7 -8 -8 -8 -8 -8 -8 -8 -8 -8 -8 -8 -9 -9 -9
4 1 2 1 1 2 2 1 1 0 -2 -3 -3 -4 -5 -5 -5 -6 -6 -6 -7 -7 -7 -7 -6 -6 -6 -6 -7 -7 -8 -8 -8 -8 -8 -9 -9 -9 -9 -10 -11 -11 -12 -12
1 0 -1 -1 -1 0 1 0 0 0 -1 -3 -3 -5 -6 -6 -7 -8 -8 -8 -7 -8 -7 -7 -7 -6 -6 -7 -7 -8 -9 -9 -9 -9 -10 -10 -10 -10 -11 -11 -12 -13 -13 -13
-1 -1 -3 -3 -3 -2 -2 -2 -3 -3 -3 -5 -6 -6 -7 -8 -9 -8 -8 -8 -8 -8 -8 -8 -7 -6 -7 -7 -8 -8 -9 -9 -10 -10 -10 -11 -11 -11 -12 -12 -13 -14 -14 -14
-4 -4 -3 -4 -5 -4 -5 -5 -5 -6 -6 -6 -7 -8 -8 -9 -9 -9 -8 -9 -9 -9 -9 -8 -7 -7 -8 -8 -8 -8 -9 -10 -10 -11 -11 -11 -12 -12 -13 -13 -14 -14 -14 -14
-5 -5 -6 -7 -8 -8 -8 -8 -7 -8 -8 -8 -8 -9 -9 -10 -9 -10 -10 -10 -10 -10 -9 -9 -8 -9 -9 -8 -8 -9 -10 -11 -11 -12 -12 -13 -13 -13 -14 -14 -14 -14 -14 -15
-8 -7 -8 -9 -9 -10 -10 -9 -9 -10 -10 -9 -10 -10 -11 -11 -10 -10 -11 -11 -11 -10 -10 -10 -9 -10 -10 -10 -10 -10 -11 -12 -12 -13 -13 -14 -14 -13 -13 -14 -14 -14 -15 -16
-10 -11 -11 -11 -11 -12 -11 -11 -11 -11 -11 -11 -11 -11 -11 -12 -11 -11 -11 -11 -11 -10 -10 -10 -10 -11 -11 -10 -11 -11 -12 -12 -13 -13 -13 -13 -13 -14 -14 -14 -15 -15 -16 -16
-10 -11 -11 -12 -12 -13 -12 -12 -12 -12 -12 -12 -12 -12 -13 -12 -12 -12 -12 -12 -11 -11 -11 -11 -11 -11 -10 -11 -11 -11 -12 -12 -12 -12 -13 -13 -13 -14 -14 -15 -15 -16 -16 -17
-10 -10 -11 -11 -12 -12 -14 -13 -13 -13 -13 -13 -13 -13 -13 -13 -13 -13 -12 -12 -12 -12 -12 -12 -12 -11 -11 -12 -12 -12 -12 -12 -13 -13 -13 -14 -14 -14 -15 -15 -16 -16 -17 -17
-10 -11 -11 -12 -13 -13 -13 -13 -13 -14 -14 -14 -14 -13 -13 -13 -13 -13 -13 -13 -13 -13 -13 -13 -12 -12 -12 -12 -13 -13 -13 -13 -14 -14 -14 -14 -15 -15 -16 -16 -17 -17 -18 -18
-10 -11 -11 -11 -12 -12 -13 -13 -14 -14 -14 -14 -14 -14 -14 -14 -13 -13 -13 -13 -13 -13 -13 -13 -13 -13 -13 -13 -14 -14 -14 -14 -15 -15 -15 -16 -16 -17 -17 -17 -18 -18 -19 -19
-11 -11 -11 -12 -12 -13 -13 -13 -14 -14 -14 -14 -15 -14 -14 -14 -14 -14 -14 -14 -14 -14 -15 -14 -14 -14 -14 -15 -15 -15 -15 -16 -16 -16 -16 -17 -17 -18 -18 -18 -18 -19 -19 -19

GFSNGP_925_temp_111.txt.gz
Temp
9 12 13 12 12 11 12 14 16 18 17 17 16 16 16 15 15 15 15 15 14 12 11 10 9 9 9 11 12 13 13 12 12 12 12 11 12 12 12 12 12 11 11 11
9 11 12 12 12 12 13 14 14 14 15 14 15 15 15 15 15 14 13 13 12 11 10 9 8 7 8 9 9 11 12 12 12 12 12 11 11 12 12 12 11 11 11 11
11 11 11 12 12 12 13 13 14 15 15 14 14 14 14 14 14 13 12 11 10 10 8 7 5 5 6 7 8 9 11 12 12 12 12 12 11 11 10 11 12 11 11 11
10 11 11 14 13 14 12 12 14 14 14 14 13 13 12 13 12 11 10 9 8 8 6 5 5 5 6 7 7 8 7 10 11 12 12 12 12 11 11 11 10 11 11 11
9 11 12 13 13 13 12 13 13 14 13 13 13 13 10 10 9 8 7 7 7 6 5 4 4 4 6 5 5 5 5 5 7 8 11 12 12 12 11 11 10 10 11 11
10 10 10 13 13 13 13 14 13 13 13 12 12 11 12 7 7 6 5 5 5 5 4 3 3 3 4 3 3 3 2 3 3 5 7 11 12 11 11 11 11 11 10 11
9 9 11 12 12 13 13 12 12 12 12 11 10 10 8 7 5 4 4 4 3 4 3 2 2 2 2 1 1 1 1 1 1 2 4 7 11 11 11 10 10 8 7 6
8 8 9 11 12 12 11 11 13 12 11 10 8 7 6 5 4 4 4 2 2 2 2 1 0 1 1 0 -1 -0 -0 -0 -0 1 2 4 9 9 9 8 5 3 2 1
8 10 9 9 9 10 10 11 10 11 10 9 7 6 5 4 3 2 2 1 1 1 1 -0 -1 -1 -1 -1 -2 -2 -2 -2 -2 -1 1 2 2 3 2 1 -0 -1 -2 -3
7 9 9 8 9 8 8 8 8 9 8 7 5 5 4 3 2 1 0 0 -0 0 -0 -1 -2 -2 -3 -2 -2 -2 -3 -3 -3 -3 -2 -1 -0 -0 -0 -1 -2 -3 -3 -3
7 8 8 6 7 8 7 6 6 5 5 5 5 4 3 2 1 -0 -1 -1 -1 -2 -2 -3 -3 -4 -4 -4 -3 -3 -3 -3 -3 -4 -4 -4 -4 -3 -2 -2 -2 -3 -4 -4
6 4 6 3 3 4 5 5 5 4 3 3 3 2 1 -0 -1 -1 -2 -2 -3 -4 -4 -4 -4 -5 -5 -5 -4 -3 -3 -4 -4 -4 -4 -4 -4 -4 -4 -4 -4 -4 -4 -4
3 3 2 3 2 2 2 2 1 1 0 1 -0 -0 -1 -1 -3 -3 -4 -4 -5 -5 -5 -5 -6 -6 -7 -6 -6 -5 -4 -5 -5 -5 -4 -4 -4 -4 -5 -5 -6 -6 -6 -6
1 1 2 1 1 0 1 0 -1 -1 -1 -1 -1 -2 -3 -3 -4 -5 -5 -6 -7 -6 -6 -6 -7 -8 -7 -6 -6 -6 -7 -6 -6 -6 -6 -6 -6 -6 -6 -6 -6 -6 -7 -7
2 1 -0 -0 -0 -0 -0 1 1 -0 -1 -2 -3 -3 -3 -3 -4 -5 -6 -6 -7 -7 -6 -7 -7 -8 -7 -7 -7 -7 -7 -7 -7 -7 -7 -8 -8 -8 -9 -9 -9 -10 -10 -9
1 0 0 -1 -0 -0 -1 -1 0 -1 -1 -3 -3 -4 -5 -6 -6 -7 -7 -7 -7 -8 -8 -7 -8 -8 -7 -7 -8 -8 -8 -8 -7 -7 -8 -8 -8 -9 -9 -10 -10 -11 -11 -11
-1 -1 -2 -2 -2 -2 -2 -3 -2 -2 -2 -3 -4 -5 -6 -7 -7 -8 -8 -9 -8 -8 -8 -8 -8 -8 -8 -7 -8 -8 -8 -8 -8 -8 -8 -8 -9 -9 -10 -11 -11 -12 -13 -13
-3 -3 -3 -4 -4 -4 -4 -4 -5 -4 -4 -6 -7 -7 -8 -8 -8 -9 -9 -8 -8 -8 -9 -9 -8 -8 -8 -9 -9 -8 -8 -8 -8 -9 -9 -9 -10 -10 -11 -11 -12 -13 -14 -14
-5 -5 -5 -6 -7 -6 -7 -7 -8 -8 -7 -7 -8 -8 -8 -9 -9 -10 -9 -9 -9 -9 -9 -9 -9 -9 -9 -9 -9 -9 -9 -9 -9 -10 -11 -11 -11 -11 -12 -12 -13 -14 -14 -15
-6 -7 -8 -9 -10 -10 -10 -10 -9 -10 -9 -9 -9 -9 -9 -10 -10 -10 -10 -10 -10 -10 -10 -10 -9 -9 -9 -9 -9 -10 -10 -10 -10 -11 -11 -11 -12 -13 -13 -14 -14 -15 -15 -16
-10 -10 -10 -11 -11 -12 -12 -12 -11 -11 -11 -10 -10 -11 -11 -11 -11 -10 -10 -9 -11 -11 -10 -10 -10 -10 -10 -10 -10 -10 -11 -11 -12 -12 -12 -13 -13 -13 -14 -14 -15 -16 -16 -17
-11 -12 -13 -13 -13 -13 -13 -13 -12 -12 -12 -12 -12 -12 -12 -12 -12 -12 -12 -11 -12 -11 -11 -11 -11 -10 -10 -10 -11 -11 -12 -12 -13 -13 -13 -13 -14 -14 -15 -15 -16 -16 -17 -17
-11 -12 -12 -13 -14 -14 -13 -13 -13 -13 -13 -13 -13 -13 -12 -12 -12 -11 -11 -13 -12 -11 -12 -12 -12 -11 -11 -11 -12 -12 -13 -13 -13 -14 -14 -14 -15 -15 -15 -16 -16 -17 -17 -18
-12 -12 -13 -13 -13 -13 -14 -14 -14 -14 -14 -14 -13 -13 -13 -12 -13 -13 -13 -13 -12 -12 -12 -12 -12 -11 -11 -12 -12 -13 -13 -13 -13 -13 -13 -13 -14 -15 -15 -15 -16 -16 -16 -17
-12 -12 -13 -13 -13 -13 -14 -14 -14 -14 -14 -14 -14 -14 -13 -13 -13 -14 -14 -13 -13 -13 -13 -13 -12 -12 -12 -12 -13 -13 -13 -14 -14 -14 -14 -14 -15 -15 -16 -15 -16 -16 -17 -17
-11 -12 -13 -13 -13 -13 -14 -14 -14 -14 -14 -14 -14 -15 -14 -14 -14 -14 -14 -14 -14 -14 -14 -14 -13 -13 -13 -13 -13 -14 -14 -14 -14 -14 -14 -15 -15 -15 -16 -16 -16 -17 -17 -17
-12 -12 -13 -13 -14 -14 -14 -14 -14 -14 -15 -15 -14 -15 -15 -15 -14 -14 -14 -15 -15 -15 -15 -15 -15 -14 -14 -14 -14 -15 -15 -15 -15 -15 -15 -16 -16 -16 -17 -17 -17 -18 -18 -18

GFSNGP_925_temp_114.txt.gz
Temp
11 11 15 14 13 12 15 18 18 20 21 22 21 20 19 20 19 19 18 17 16 15 12 10 9 8 8 8 9 12 13 13 14 14 14 13 13 13 13 12 12 12 12 11
11 11 14 14 14 15 15 15 18 19 20 23 22 20 19 19 19 18 17 16 15 14 13 10 7 7 7 7 8 9 11 14 14 13 13 13 13 13 13 13 12 12 12 12
12 14 13 14 14 15 16 17 17 17 20 19 19 18 18 18 17 16 15 14 13 13 12 10 7 5 6 6 7 8 8 12 13 13 12 13 13 12 12 12 12 12 11 11
11 14 11 14 15 16 16 16 17 17 18 16 15 13 13 15 15 14 13 13 12 12 10 9 9 6 6 5 5 6 6 6 7 10 12 13 12 13 13 12 12 11 12 11
11 12 14 13 14 13 13 15 15 17 16 13 14 14 11 12 12 11 11 11 10 9 8 8 7 6 6 5 4 4 3 4 4 5 7 10 12 12 13 13 12 11 11 11
11 10 12 13 14 15 14 12 15 16 15 15 16 14 11 10 11 10 10 9 9 8 7 6 6 6 4 3 3 3 2 2 3 3 4 6 9 12 13 13 12 11 10 10
11 11 13 13 14 16 13 12 13 14 11 13 12 9 8 9 9 9 8 7 7 7 6 5 4 5 4 2 1 1 1 1 1 1 3 4 7 10 12 11 11 10 9 8
11 10 10 13 14 12 12 13 11 11 11 11 10 8 8 8 7 7 8 6 6 6 5 3 2 2 3 2 0 -0 -0 -0 0 0 0 2 4 7 10 9 7 4 3 2
10 12 13 12 10 10 11 11 11 12 13 11 9 9 8 6 5 5 5 5 4 5 4 2 1 0 1 -0 -0 -1 -1 -1 -1 -1 -1 -0 1 2 3 3 1 -1 -1 -2
7 8 7 6 7 9 8 9 9 11 10 10 9 8 8 7 6 5 3 3 3 3 3 2 0 -1 -1 -1 -1 -1 -1 -2 -2 -2 -2 -2 -1 -0 -0 -1 -2 -2 -3 -4
7 7 5 4 4 5 6 6 6 8 8 8 8 7 6 5 4 3 3 2 1 1 0 0 -1 -2 -2 -2 -1 -2 -2 -2 -3 -3 -3 -3 -4 -3 -3 -2 -1 -3 -4 -4
6 4 4 3 3 3 3 2 3 6 5 5 5 4 4 3 2 2 1 0 -0 -1 -1 -2 -2 -3 -3 -3 -2 -2 -3 -3 -3 -3 -4 -4 -4 -5 -5 -5 -4 -4 -4 -4
3 3 2 2 2 2 2 1 0 0 1 3 3 3 2 1 -2 -3 -3 -4 -4 -4 -4 -4 -5 -5 -6 -5 -4 -3 -3 -4 -4 -4 -4 -4 -4 -5 -5 -6 -6 -6 -6 -7
1 2 2 1 1 1 2 1 0 2 1 0 2 1 0 -1 -2 -3 -5 -5 -6 -5 -6 -6 -6 -7 -7 -6 -5 -5 -5 -4 -4 -4 -5 -5 -5 -5 -5 -5 -6 -6 -7 -7
2 2 0 -0 0 0 1 2 2 2 1 0 0 1 0 -0 -2 -3 -4 -6 -5 -6 -7 -7 -7 -7 -7 -6 -6 -5 -5 -5 -5 -5 -6 -6 -6 -6 -6 -7 -7 -8 -8 -8
2 2 2 1 1 1 0 1 2 1 0 -1 -1 -2 -3 -2 -3 -3 -5 -6 -5 -6 -7 -7 -7 -8 -8 -6 -6 -6 -6 -6 -5 -5 -5 -6 -6 -6 -6 -6 -6 -7 -7 -8
1 0 -0 -1 -0 -1 -1 -2 -1 -1 -1 -2 -3 -4 -4 -5 -5 -6 -7 -7 -7 -7 -7 -7 -7 -8 -8 -6 -6 -5 -6 -6 -6 -5 -5 -5 -6 -6 -6 -7 -7 -8 -9 -10
-1 -2 -2 -3 -3 -2 -2 -3 -3 -3 -3 -5 -5 -6 -6 -6 -6 -7 -7 -7 -7 -7 -8 -8 -7 -7 -7 -7 -6 -5 -5 -6 -6 -6 -6 -6 -6 -7 -7 -8 -8 -9 -11 -12
-3 -3 -4 -5 -5 -5 -5 -6 -6 -7 -6 -6 -6 -6 -7 -7 -7 -7 -7 -7 -6 -5 -8 -8 -8 -7 -8 -8 -6 -6 -6 -6 -6 -7 -8 -8 -8 -8 -8 -8 -9 -9 -10 -11
-5 -5 -6 -7 -9 -8 -8 -9 -8 -8 -8 -7 -7 -7 -7 -8 -9 -8 -8 -8 -9 -8 -8 -9 -8 -8 -8 -8 -7 -7 -7 -7 -7 -8 -8 -8 -8 -9 -9 -10 -10 -11 -11 -12
-8 -8 -9 -9 -10 -10 -11 -10 -10 -9 -10 -10 -8 -9 -9 -9 -9 -9 -7 -6 -9 -10 -10 -9 -9 -8 -9 -8 -8 -8 -8 -8 -8 -8 -8 -9 -9 -10 -10 -11 -11 -12 -12 -13
-9 -10 -11 -11 -11 -11 -12 -11 -11 -11 -11 -11 -11 -10 -9 -9 -9 -10 -11 -9 -10 -10 -10 -9 -10 -11 -10 -9 -9 -9 -9 -9 -9 -9 -9 -10 -10 -10 -11 -11 -12 -12 -13 -13
-9 -9 -11 -11 -11 -12 -12 -12 -12 -12 -11 -11 -11 -10 -10 -10 -9 -8 -8 -11 -10 -11 -10 -11 -12 -11 -11 -10 -10 -10 -10 -10 -10 -10 -10 -11 -11 -11 -12 -12 -13 -13 -14 -14
-10 -10 -11 -11 -11 -10 -10 -11 -11 -12 -12 -11 -12 -12 -10 -9 -10 -11 -11 -12 -13 -12 -13 -13 -13 -13 -11 -11 -11 -11 -11 -11 -11 -11 -12 -12 -12 -13 -13 -14 -14 -14 -15 -15
-10 -10 -11 -10 -9 -9 -10 -11 -11 -11 -11 -11 -11 -11 -11 -11 -11 -11 -12 -12 -13 -12 -13 -14 -13 -13 -12 -12 -12 -12 -12 -12 -12 -12 -12 -13 -13 -13 -14 -14 -15 -15 -16 -16
-8 -8 -9 -11 -10 -10 -10 -10 -10 -10 -10 -11 -11 -11 -12 -12 -12 -12 -13 -13 -13 -13 -13 -13 -13 -13 -13 -13 -13 -13 -13 -13 -13 -14 -14 -14 -14 -15 -15 -16 -16 -16 -17 -17
-10 -10 -9 -10 -10 -11 -11 -11 -10 -11 -11 -11 -11 -12 -12 -12 -13 -13 -13 -13 -13 -13 -14 -14 -14 -14 -14 -14 -14 -15 -15 -15 -15 -15 -15 -15 -15 -16 -16 -17 -17 -17 -18 -18

GFSNGP_925_temp_117.txt.gz
Temp
12 14 14 14 13 16 17 17 19 21 22 23 23 23 23 22 21 21 19 19 18 16 14 13 10 8 8 8 8 9 11 13 14 14 15 15 15 15 14 12 12 11 11 11
13 14 15 14 13 14 16 18 19 20 20 22 20 21 23 22 21 18 18 18 17 16 15 14 10 7 7 7 7 7 8 9 15 15 15 15 16 15 14 13 12 12 11 11
12 14 12 12 14 15 15 15 18 18 21 21 22 14 21 20 18 16 17 17 16 15 14 13 12 8 6 6 6 6 6 6 7 13 13 14 15 15 15 14 14 13 12 11
12 13 11 13 17 15 16 17 16 16 14 16 17 14 15 15 15 15 15 15 15 14 13 12 12 11 8 5 4 4 4 4 4 5 9 12 13 15 15 14 14 13 13 12
12 13 14 14 15 15 15 16 16 17 17 14 13 15 12 13 14 14 14 14 13 12 11 11 10 10 9 7 4 3 3 3 3 3 4 7 10 13 14 14 13 13 13 12
12 12 12 13 15 16 16 14 13 12 14 14 14 13 10 12 13 13 13 12 12 11 10 9 8 9 8 6 4 2 1 1 2 2 2 4 6 9 12 14 14 13 12 11
13 12 14 14 14 15 13 10 11 8 12 11 10 8 9 11 12 12 11 10 11 10 9 7 7 8 8 6 3 2 0 1 1 1 1 2 4 6 9 11 12 11 9 8
12 12 12 12 12 9 9 11 8 9 10 11 11 10 9 9 10 11 11 9 9 9 7 6 5 6 6 4 2 1 0 -0 0 -0 -0 0 1 3 7 9 8 4 4 2
9 10 8 7 6 8 8 8 7 9 12 11 9 9 9 9 9 9 9 8 8 8 6 5 4 3 4 2 2 1 -0 -1 -1 -1 -1 -1 -0 1 2 3 2 0 -1 -2
9 10 6 4 4 5 5 5 5 8 11 10 10 9 9 8 7 8 6 6 6 5 5 4 3 2 1 1 1 -0 -1 -1 -2 -2 -3 -2 -2 -1 -1 -1 -1 -2 -3 -3
9 9 7 6 3 3 4 3 4 4 9 9 9 8 8 7 6 6 5 4 3 3 3 2 1 0 -1 -1 -0 -1 -2 -2 -2 -3 -3 -4 -4 -4 -3 -2 -2 -3 -4 -4
6 4 4 4 3 2 2 2 2 3 5 7 8 7 6 4 2 2 1 1 0 -0 -0 -1 -1 -2 -3 -2 -2 -1 -2 -3 -3 -3 -4 -4 -5 -5 -5 -5 -4 -3 -4 -4
3 3 3 2 3 2 2 2 2 1 2 2 5 4 3 1 -2 -2 -3 -3 -3 -4 -3 -4 -4 -5 -5 -4 -3 -3 -3 -3 -4 -4 -4 -4 -4 -5 -5 -6 -6 -6 -6 -6
3 3 3 2 1 1 2 2 2 2 2 1 1 3 3 0 -2 -3 -4 -4 -5 -5 -5 -5 -5 -6 -5 -4 -4 -4 -4 -4 -4 -4 -5 -5 -5 -5 -5 -5 -6 -6 -7 -7
5 5 3 3 4 3 2 3 4 4 3 2 2 2 2 2 -0 -2 -4 -4 -4 -5 -5 -6 -6 -6 -6 -5 -5 -4 -4 -4 -4 -5 -5 -5 -5 -5 -6 -6 -6 -7 -7 -7
4 5 4 4 4 4 3 1 1 2 2 1 -0 -0 -0 -0 -1 -2 -4 -5 -5 -5 -6 -6 -6 -7 -6 -5 -5 -4 -4 -4 -4 -4 -4 -4 -4 -4 -5 -4 -5 -5 -5 -6
3 3 1 1 1 2 2 1 -0 -0 -0 -0 -2 -3 -2 -2 -3 -5 -5 -6 -6 -6 -6 -6 -6 -7 -6 -5 -5 -4 -4 -4 -4 -4 -4 -4 -4 -5 -5 -5 -6 -7 -7 -7
1 0 -1 -1 -1 -0 -0 -1 -2 -3 -4 -4 -4 -4 -4 -5 -5 -5 -5 -5 -5 -6 -7 -7 -7 -6 -6 -6 -5 -4 -5 -5 -5 -5 -5 -5 -5 -5 -6 -6 -7 -8 -8 -8
-1 -1 -2 -4 -5 -4 -4 -5 -6 -6 -6 -5 -5 -5 -6 -6 -6 -6 -6 -6 -5 -5 -7 -7 -7 -7 -7 -6 -5 -5 -5 -5 -5 -6 -6 -6 -6 -6 -6 -7 -7 -8 -8 -8
-3 -4 -5 -6 -7 -8 -7 -7 -7 -7 -7 -6 -6 -6 -6 -7 -7 -6 -6 -7 -8 -8 -7 -7 -7 -7 -7 -7 -6 -6 -6 -5 -6 -6 -6 -6 -7 -7 -7 -7 -8 -8 -9 -9
-7 -7 -8 -7 -8 -9 -9 -8 -8 -8 -8 -9 -7 -8 -7 -8 -8 -7 -5 -5 -8 -8 -8 -8 -8 -7 -7 -6 -6 -6 -6 -6 -6 -6 -7 -7 -7 -7 -8 -8 -9 -9 -10 -10
-7 -8 -9 -9 -8 -9 -10 -10 -9 -9 -9 -9 -9 -8 -7 -7 -7 -8 -9 -8 -8 -9 -8 -9 -9 -9 -8 -7 -7 -7 -7 -7 -7 -7 -7 -7 -7 -8 -8 -9 -9 -10 -10 -11
-7 -7 -8 -9 -9 -9 -10 -10 -10 -10 -10 -10 -9 -9 -8 -8 -8 -7 -7 -10 -9 -10 -9 -10 -10 -10 -9 -8 -8 -8 -8 -8 -7 -8 -8 -8 -8 -9 -9 -10 -10 -11 -11 -12
-8 -8 -8 -9 -9 -8 -8 -9 -9 -10 -10 -10 -10 -10 -9 -8 -9 -9 -10 -10 -10 -11 -11 -11 -11 -10 -9 -9 -9 -9 -8 -8 -9 -9 -9 -10 -10 -10 -11 -11 -11 -12 -13 -13
-8 -8 -8 -7 -6 -6 -8 -8 -9 -9 -9 -9 -9 -9 -10 -10 -10 -10 -10 -11 -11 -10 -11 -12 -11 -11 -10 -10 -10 -10 -10 -10 -10 -10 -10 -10 -11 -11 -12 -12 -12 -13 -14 -14
-7 -7 -7 -9 -8 -8 -7 -7 -7 -8 -8 -8 -9 -10 -10 -10 -10 -10 -11 -11 -11 -11 -11 -12 -11 -11 -11 -11 -11 -11 -11 -11 -11 -11 -11 -12 -12 -12 -13 -14 -14 -14 -14 -15
-7 -9 -7 -7 -8 -8 -9 -9 -8 -9 -9 -9 -9 -10 -10 -11 -11 -11 -11 -11 -11 -12 -12 -12 -12 -12 -12 -12 -12 -12 -13 -13 -13 -13 -13 -13 -13 -14 -14 -14 -15 -15 -16 -17

GFSNGP_925_temp_120.txt.gz
Temp
12 13 14 14 15 13 15 17 14 18 21 22 19 17 16 18 18 19 19 18 17 15 14 12 10 9 8 7 7 8 9 11 12 13 14 15 15 15 14 13 12 12 11 11
12 14 15 14 13 12 15 17 17 18 19 19 21 14 14 13 17 17 17 17 16 16 15 13 11 9 7 6 6 6 7 6 7 11 14 15 15 15 14 13 12 12 11 11
11 14 14 13 10 12 10 14 15 16 17 16 15 14 12 10 12 16 17 16 15 14 14 13 12 9 7 5 5 5 5 5 6 7 9 11 14 15 14 13 12 12 11 11
11 13 11 10 15 15 15 10 11 13 14 14 13 12 12 11 10 13 14 14 14 14 13 12 11 10 9 6 4 3 3 3 4 5 5 7 11 13 15 14 13 12 12 11
11 12 14 12 14 13 13 13 11 10 12 13 13 13 12 13 13 12 13 13 13 12 11 10 10 10 9 7 5 3 2 2 2 3 4 4 6 9 13 14 14 13 13 12
11 10 12 10 13 14 16 12 9 9 9 10 13 9 9 12 13 12 13 12 12 11 9 8 8 9 8 6 4 2 1 1 1 1 3 3 3 5 8 12 13 13 12 12
11 11 12 8 11 14 10 9 8 6 8 7 6 8 10 12 12 12 11 11 10 9 8 7 6 8 6 5 3 2 1 0 -0 0 1 2 2 3 6 8 11 11 10 9
9 11 10 6 9 8 7 7 6 5 8 8 8 8 9 9 10 10 10 9 9 8 6 5 5 5 4 3 2 1 0 -1 -1 -1 0 1 1 1 3 5 5 5 4 3
8 8 6 6 4 4 5 5 5 4 8 8 9 9 9 9 9 8 8 7 7 7 6 4 3 3 2 1 1 -0 -1 -1 -2 -2 -2 -1 1 2 0 2 1 -1 -1 -2
9 7 6 5 4 3 3 3 4 3 7 8 8 7 7 7 7 6 5 5 4 4 4 3 2 1 0 0 0 -1 -2 -2 -3 -3 -4 -4 -2 -2 -2 -0 0 -1 -3 -4
8 8 6 7 3 3 3 2 2 3 4 7 7 6 4 3 3 2 2 2 1 1 1 0 -1 -2 -2 -2 -1 -2 -3 -3 -3 -4 -4 -5 -5 -4 -4 -3 -2 -2 -2 -4
6 4 3 5 3 2 3 2 2 2 3 2 5 4 2 1 -1 -1 -1 -2 -2 -2 -2 -2 -3 -3 -3 -3 -2 -2 -3 -3 -4 -4 -4 -5 -5 -5 -5 -5 -5 -5 -4 -4
4 3 3 3 3 2 2 2 2 1 1 2 1 2 0 -1 -2 -3 -3 -4 -4 -4 -4 -4 -5 -4 -4 -4 -3 -3 -3 -4 -4 -4 -4 -4 -5 -5 -5 -6 -6 -6 -6 -6
4 4 4 2 2 1 2 3 3 3 2 1 1 1 0 -1 -2 -3 -4 -4 -5 -5 -5 -6 -5 -5 -5 -4 -4 -4 -4 -4 -4 -5 -5 -6 -6 -6 -6 -6 -6 -6 -6 -6
6 6 5 4 5 4 3 2 3 2 2 1 0 0 1 -0 -2 -3 -4 -4 -5 -5 -6 -6 -6 -5 -5 -4 -4 -4 -4 -4 -4 -5 -5 -5 -6 -6 -6 -6 -7 -7 -6 -6
5 6 5 4 4 4 3 1 1 0 -0 -0 -1 -2 -2 -2 -3 -4 -5 -5 -5 -6 -6 -6 -6 -6 -5 -4 -4 -4 -4 -4 -4 -4 -4 -4 -4 -5 -5 -5 -5 -5 -6 -6
3 2 2 1 1 1 1 0 -1 -2 -2 -3 -3 -3 -3 -4 -4 -5 -5 -6 -6 -6 -6 -6 -6 -6 -5 -4 -4 -4 -4 -4 -4 -4 -5 -5 -5 -6 -6 -7 -7 -7 -7 -7
2 1 -0 -2 -2 -1 -2 -3 -4 -4 -5 -5 -4 -5 -5 -5 -5 -5 -5 -5 -6 -7 -7 -6 -6 -6 -5 -5 -5 -4 -5 -5 -5 -5 -5 -5 -6 -6 -7 -7 -8 -8 -8 -8
-1 -1 -3 -4 -5 -4 -5 -6 -6 -6 -7 -6 -5 -6 -6 -6 -6 -6 -6 -6 -7 -6 -7 -7 -6 -6 -6 -5 -5 -5 -5 -5 -6 -6 -6 -6 -6 -7 -7 -7 -8 -8 -9 -9
-3 -4 -5 -6 -7 -8 -7 -7 -7 -7 -8 -7 -6 -6 -7 -7 -7 -7 -7 -8 -8 -7 -7 -8 -7 -7 -6 -6 -5 -5 -5 -6 -6 -6 -6 -7 -7 -7 -8 -8 -8 -9 -9 -10
-6 -7 -8 -7 -8 -8 -9 -8 -8 -8 -8 -8 -8 -7 -7 -7 -8 -7 -6 -7 -8 -8 -8 -8 -8 -7 -7 -6 -6 -6 -6 -6 -6 -7 -7 -7 -7 -8 -8 -9 -9 -10 -10 -11
-7 -8 -9 -9 -8 -9 -9 -9 -9 -9 -9 -9 -9 -8 -7 -7 -8 -9 -9 -9 -9 -9 -9 -9 -9 -8 -7 -6 -6 -6 -6 -6 -7 -7 -7 -7 -8 -8 -9 -9 -10 -10 -11 -11
-7 -7 -8 -9 -8 -8 -9 -9 -10 -10 -9 -10 -10 -10 -8 -8 -8 -8 -9 -10 -10 -10 -10 -10 -9 -8 -8 -7 -7 -7 -7 -7 -7 -8 -8 -8 -8 -9 -9 -10 -10 -11 -11 -12
-7 -7 -8 -8 -8 -7 -7 -8 -9 -9 -9 -9 -10 -9 -9 -8 -9 -9 -10 -10 -10 -11 -11 -10 -10 -9 -9 -8 -8 -8 -8 -8 -9 -9 -9 -10 -10 -10 -10 -11 -12 -12 -12 -13
-7 -7 -7 -7 -6 -6 -7 -7 -8 -8 -8 -8 -9 -9 -10 -10 -10 -10 -10 -10 -10 -10 -11 -11 -10 -10 -10 -10 -10 -10 -10 -10 -10 -10 -10 -10 -11 -11 -12 -12 -12 -13 -14 -14
-6 -6 -7 -8 -7 -7 -7 -7 -7 -8 -8 -8 -9 -9 -10 -10 -10 -10 -11 -11 -11 -11 -11 -11 -11 -11 -11 -11 -11 -11 -11 -11 -11 -11 -11 -11 -12 -12 -13 -13 -13 -14 -14 -15
-7 -7 -6 -7 -7 -8 -9 -9 -8 -9 -9 -9 -9 -10 -10 -10 -10 -10 -11 -11 -11 -11 -12 -12 -12 -12 -12 -12 -12 -12 -13 -12 -12 -12 -12 -13 -13 -13 -14 -14 -14 -15 -15 -16

GFSNGP_925_temp_123.txt.gz
Temp
9 11 11 12 13 10 10 12 13 14 14 14 13 13 13 12 11 13 14 13 12 11 10 9 7 6 6 6 6 7 8 9 9 11 13 13 14 14 15 14 14 13 12 12
9 11 12 12 10 10 10 10 13 13 13 12 13 11 11 10 10 9 14 14 14 13 11 9 8 6 6 4 5 5 5 6 7 9 11 12 13 14 14 14 13 13 12 12
9 11 11 10 9 9 8 9 9 10 11 13 13 11 10 9 10 9 9 13 12 11 11 10 8 6 5 4 4 3 3 3 4 6 7 8 11 13 14 14 13 12 12 11
9 10 9 10 12 11 9 8 7 7 9 11 11 11 11 10 10 10 9 10 10 9 9 8 8 7 5 4 3 2 2 2 2 3 4 7 8 10 11 13 13 12 12 11
8 9 12 8 9 9 9 9 7 7 7 8 11 11 11 12 12 11 11 10 9 8 7 6 7 6 4 3 3 2 1 1 1 1 2 4 6 6 8 10 12 13 12 11
9 9 9 6 7 8 12 9 7 6 6 7 9 8 7 10 11 10 10 8 7 6 5 5 5 4 3 2 2 1 1 -0 0 0 1 1 3 5 5 8 9 12 12 11
8 9 8 5 7 9 8 6 5 4 6 5 5 5 6 8 9 9 8 8 6 5 4 3 3 2 2 2 1 0 -0 -1 -1 -1 -0 0 1 3 4 6 7 9 10 9
8 8 6 5 7 5 4 5 4 3 5 6 6 5 5 5 6 6 6 6 5 4 2 1 1 1 1 1 -0 -1 -1 -2 -2 -2 -2 -1 -0 1 3 3 2 1 2 3
6 6 5 4 4 3 3 3 3 4 4 5 5 5 5 4 4 4 3 3 2 2 1 -1 -1 -1 -1 -1 -1 -2 -2 -3 -3 -3 -3 -2 -2 -1 0 0 0 -1 -2 -2
6 5 5 3 4 3 3 2 3 3 4 4 3 2 3 2 1 1 0 -0 -0 -0 -1 -2 -2 -2 -2 -2 -2 -3 -3 -3 -4 -4 -5 -4 -4 -4 -2 -1 -0 -1 -1 -3
6 6 6 4 3 3 3 2 2 2 2 3 2 1 1 0 -0 -1 -1 -2 -2 -2 -3 -3 -3 -3 -3 -3 -2 -3 -4 -4 -4 -5 -5 -5 -5 -5 -5 -5 -1 -2 -3 -3
1 3 3 4 2 2 2 2 1 1 2 2 1 1 -0 -1 -2 -3 -3 -4 -4 -4 -4 -4 -4 -4 -4 -3 -3 -3 -4 -4 -4 -5 -5 -5 -5 -5 -5 -5 -5 -4 -5 -5
2 3 4 3 3 2 2 1 2 1 0 1 1 -0 -2 -2 -3 -4 -5 -5 -5 -6 -6 -6 -5 -5 -4 -4 -4 -4 -4 -4 -5 -5 -6 -6 -6 -6 -6 -6 -6 -6 -6 -6
2 1 2 1 -0 0 2 1 1 1 0 -1 -1 -1 -2 -3 -4 -5 -4 -5 -5 -6 -6 -6 -5 -5 -4 -4 -4 -4 -4 -5 -5 -6 -6 -6 -6 -6 -6 -6 -6 -6 -6 -5
5 5 3 2 3 2 1 1 1 -0 -1 -2 -2 -2 -2 -3 -4 -5 -5 -5 -6 -6 -6 -6 -5 -5 -4 -4 -4 -4 -4 -5 -5 -5 -6 -6 -6 -6 -6 -6 -6 -6 -6 -6
4 3 3 2 2 2 -0 -1 -1 -2 -2 -3 -3 -4 -4 -4 -5 -5 -6 -6 -6 -7 -6 -6 -6 -5 -4 -4 -4 -4 -4 -4 -4 -5 -5 -6 -6 -7 -7 -7 -7 -7 -7 -8
1 -0 -1 -2 -2 -1 -2 -3 -3 -4 -4 -4 -4 -5 -5 -5 -5 -6 -6 -6 -6 -7 -7 -7 -6 -6 -5 -4 -4 -5 -5 -5 -5 -5 -6 -6 -7 -7 -8 -8 -8 -8 -8 -8
-1 -3 -4 -4 -4 -4 -4 -5 -5 -6 -6 -6 -6 -6 -6 -6 -6 -6 -7 -6 -6 -7 -7 -7 -6 -6 -5 -5 -5 -5 -5 -5 -5 -6 -6 -7 -7 -7 -8 -8 -9 -9 -10 -9
-3 -4 -5 -6 -6 -6 -6 -7 -7 -8 -8 -7 -6 -7 -7 -7 -7 -7 -7 -7 -8 -7 -8 -7 -7 -6 -6 -5 -5 -5 -5 -5 -6 -6 -7 -7 -7 -8 -8 -9 -9 -10 -10 -10
-6 -6 -6 -7 -8 -8 -8 -8 -8 -8 -8 -8 -7 -7 -7 -8 -8 -8 -8 -8 -9 -8 -8 -8 -7 -7 -6 -6 -5 -5 -6 -6 -6 -6 -7 -7 -8 -8 -9 -9 -10 -10 -11 -11
-8 -8 -9 -8 -9 -9 -9 -9 -9 -9 -9 -9 -8 -8 -8 -8 -8 -8 -8 -9 -9 -9 -9 -9 -8 -7 -6 -6 -6 -6 -6 -6 -7 -7 -7 -8 -8 -9 -9 -10 -10 -10 -11 -12
-8 -9 -9 -9 -9 -9 -9 -9 -9 -9 -9 -9 -9 -9 -8 -9 -9 -9 -10 -10 -10 -10 -10 -9 -8 -7 -7 -7 -6 -6 -7 -7 -7 -7 -8 -8 -9 -9 -10 -10 -11 -11 -12 -12
-7 -8 -8 -8 -9 -9 -9 -9 -9 -9 -10 -10 -9 -9 -9 -9 -9 -10 -10 -10 -10 -10 -10 -10 -9 -8 -7 -7 -7 -7 -7 -7 -8 -8 -8 -9 -9 -10 -10 -11 -11 -11 -12 -13
-8 -8 -8 -8 -8 -8 -8 -8 -9 -9 -9 -9 -9 -9 -9 -9 -10 -10 -10 -10 -11 -11 -11 -10 -10 -9 -9 -9 -8 -8 -8 -9 -9 -9 -9 -9 -10 -10 -11 -11 -12 -12 -12 -13
-7 -8 -7 -7 -8 -7 -8 -8 -8 -9 -9 -9 -9 -10 -10 -10 -10 -10 -11 -11 -11 -11 -11 -11 -11 -10 -10 -10 -10 -10 -10 -10 -10 -10 -10 -11 -11 -11 -12 -12 -12 -13 -13 -14
-7 -7 -7 -8 -8 -8 -8 -8 -8 -9 -9 -9 -10 -10 -10 -10 -10 -11 -11 -11 -11 -12 -12 -12 -12 -11 -11 -11 -11 -11 -11 -11 -11 -11 -11 -12 -12 -12 -13 -13 -14 -14 -14 -14
-7 -7 -7 -8 -8 -9 -9 -9 -9 -10 -10 -10 -10 -10 -10 -10 -11 -11 -11 -11 -12 -12 -12 -12 -12 -12 -12 -12 -12 -12 -12 -12 -12 -12 -13 -13 -13 -13 -14 -14 -14 -14 -15 -15